Lid_Strength_Index
9 9 9 9 9 9 10 10 10 9 9 9 8 8 8 8 8 8 8 8 8 8 7 7 7 7 7 8 8 7 6 6 8 11 11 11 12 13 13 12 11 14 12
9 9 9 9 9 9 9 9 9 10 9 9 9 9 9 8 8 9 9 8 9 9 8 8 8 7 8 8 9 8 6 6 8 11 12 12 13 13 13 14 12 13 13
9 9 9 9 9 9 9 9 9 9 10 9 9 9 9 9 9 8 8 8 8 8 8 8 8 8 10 10 11 11 10 8 8 10 12 12 13 13 14 14 13 14 14
9 10 10 10 10 10 9 10 9 9 10 10 9 9 9 9 8 8 8 9 9 8 8 9 9 9 10 11 12 12 12 12 11 12 13 13 13 13 13 15 16 15 16
10 10 10 10 10 10 10 10 10 10 10 10 10 10 10 9 9 9 9 10 10 10 10 9 9 10 11 11 12 13 13 13 13 13 14 15 15 15 15 15 16 15 16
10 10 10 11 11 11 11 11 11 11 11 11 11 11 11 9 7 7 7 10 10 10 10 10 11 11 11 11 11 11 11 12 12 13 13 14 14 14 14 15 15 17 18
11 11 12 12 12 12 12 12 12 12 12 12 12 11 11 11 8 7 7 10 11 11 11 11 11 12 12 12 10 10 11 11 12 13 13 13 15 14 14 15 15 16 17
12 13 13 13 13 13 13 12 12 12 12 12 12 12 12 11 8 8 8 10 11 11 11 11 12 12 12 12 12 13 14 14 14 15 15 15 15 14 13 14 15 18 19
14 14 14 14 14 14 13 13 13 12 12 12 12 12 12 12 9 9 9 11 11 11 10 11 12 12 10 9 12 14 14 13 11 13 12 12 13 14 16 17 19 19 21
15 15 15 15 15 15 14 14 13 13 13 12 12 12 12 12 10 9 9 11 11 10 10 11 10 11 9 8 12 13 15 14 13 15 16 15 16 16 16 17 18 19 22
16 16 17 16 16 15 15 15 15 14 14 14 13 13 13 12 12 9 9 10 11 11 10 11 12 9 8 8 10 13 14 13 14 18 19 20 20 20 21 20 19 19 20
18 19 19 18 17 16 17 16 16 16 15 14 14 13 13 12 11 10 9 9 9 10 10 10 11 9 8 8 8 11 10 13 17 18 19 20 21 21 22 22 21 21 20
22 22 21 19 18 17 17 17 17 17 17 16 15 15 15 13 13 11 10 9 9 11 10 9 10 8 7 7 7 10 11 16 18 19 19 20 20 21 22 22 22 22 22
24 22 20 19 19 18 17 16 18 18 17 16 16 16 15 15 14 13 13 13 11 11 10 10 9 9 8 10 10 12 15 17 18 18 19 20 21 22 23 23 24 24 25
24 22 21 20 20 19 18 18 17 16 16 16 16 16 16 15 14 11 10 11 11 10 11 14 11 11 15 16 17 17 17 18 18 19 21 22 22 22 23 22 23 23 24
25 23 23 21 21 20 20 20 16 15 14 13 12 13 13 12 11 10 9 9 9 9 11 15 13 14 16 17 18 19 19 19 19 20 21 21 22 23 24 23 23 24 24
28 26 24 23 22 22 21 21 22 19 15 14 13 13 12 11 11 10 10 9 9 9 12 15 14 15 17 18 19 19 21 20 20 20 21 21 22 23 24 25 24 24 24
31 27 26 26 25 23 23 22 21 21 21 19 16 14 13 12 11 11 11 11 16 15 17 15 15 16 17 18 19 20 20 21 21 21 21 22 22 24 25 25 24 25 25
30 29 28 28 26 24 22 21 21 20 20 19 18 16 15 13 12 13 13 17 23 20 16 15 15 16 17 18 18 20 21 22 22 22 23 24 24 24 25 25 25 25 26
30 27 25 26 25 23 22 22 21 20 20 19 19 19 18 21 20 20 20 17 17 16 15 15 17 17 17 18 19 21 22 22 23 23 24 24 24 24 25 26 27 28 28
30 27 24 25 25 25 23 21 21 21 20 20 19 19 13 17 21 24 21 18 17 16 16 16 17 18 18 19 20 21 22 22 22 23 24 25 25 25 26 25 26 27 28
27 25 24 24 22 21 21 22 21 20 20 21 19 19 14 18 18 19 19 18 17 17 16 17 18 19 19 20 20 21 21 22 23 23 24 25 25 25 26 26 27 28 28
25 24 24 23 23 21 20 23 21 22 21 23 21 20 19 17 17 17 18 17 17 17 18 17 18 19 19 20 19 20 21 22 22 22 24 25 25 26 26 27 27 28 29
26 23 23 22 22 22 22 21 23 23 22 23 23 22 19 17 18 16 16 16 17 18 19 19 19 19 20 21 20 20 20 20 21 22 23 24 26 26 27 27 28 29 28
24 23 23 23 23 23 24 24 24 25 24 23 22 21 18 18 18 18 17 18 18 19 19 20 20 20 20 21 21 22 21 20 23 22 23 24 25 26 27 28 28 30 31
25 25 24 24 25 25 24 23 23 24 22 21 19 19 19 19 18 18 19 19 20 20 20 21 21 22 22 22 23 22 22 21 23 24 24 25 26 27 28 29 29 29 29